NOAA 16 DEB, 41067

Orbit data source: Space-Track

NOAA 16 DEB, 41067 is space debris in SSO originally from a launch on Thu, 21 Sep 2000 UTC launched from the Air Force Western Test Range (AFWTR). Debris objects in space refer to the collection of defunct objects orbiting the Earth. Examples of debris include non-operational satellites, rocket bodies, and fragments generated from explosions, collisions, or faulty payload assembly.

Loading next visibility...
Identifier
41067, 2000-055AA
Orbit
SSO
Country
Flag of USUS
Related business
Manufacturer
Unknown
Mission
Spacecraft
Bus & Motor
Unknown
Mass
Unknown
Launch date (UTC)
2000-09-21 (25 years ago)
Launch vehicle
Unknown
Launch site
Air Force Western Test Range (AFWTR)
Object type
Payload
Rocket body
Debris
Shape & HBR
Unknown
Radar Cross Section
Small (<0.1 m²)

Expand to show TLE details & history
Last TLE update: 22 hours ago

TLE from 22 hours ago
0 NOAA 16 DEB
1 41067U 00055AA  25242.08568700  .00001151  00000-0  59050-3 0  9997
2 41067  98.5553 281.8624 0004981  54.5605 305.6035 14.17261719503563
Epoch: 2025-08-30T02:03Z
TLE epoch observation values (Epoch: 2025-08-30T02:03:23.356Z)
Latitude
-0.00003°
Longitude
-87.50995°
Altitude
835.453 km
Speed
7.436 km/s
True Right ascension
18h 47m 26s
True Declination
0° 00' 00"
Sunlit
Object was in full shadow at epoch
Visualization orbit readout
Latitude
Unknown
Longitude
Unknown
Altitude
Unknown
Speed
Unknown
Apparent Right ascension
Unknown
Apparent Declination
Unknown
Sunlit
N/A
Visualization observer readout
Local Sidereal Time
15:44:54
Azimuth
Unknown
Elevation
Unknown
Doppler factor
Unknown
Orbital elements
Apogee altitude
835.375 km
Perigee altitude
828.192 km
Semi-major axis
7,209.92 km
Eccentricity
0.0005
Inclination
98.5553°
RAAN
281.8624°
Arg. of periapsis
54.5605°
True anomaly
305.55707°
Mean anomaly
305.6035°
Eccentric anomaly
305.58029°
Mean motion
3.54525 °/min
Orbital period
101.54 mins
BSTAR
0.0005905
Loading maneuver chart data...
Computing Atmospheric mass density...
Loading historical data...
Loading historical data...
Loading historical data...
Loading historical data...
Loading historical data...
Loading historical data...
Loading historical data...

Documentation

Showing up to 5 results
|